This is the latest recevied weather packets stored in our database for station/object OK3MS-5. If no packets are shown the sender has not sent any weather packets the latest 10 day(s).
| Time | Temp. | Humidity | Pressure | Rain* | Wind** | Luminosity | Snow |
|---|---|---|---|---|---|---|---|
| 1787999703 | 21.11° C | 62% | 1015.4 hPa | 0 mm | - | 162 W/m² | - |
| 1787999405 | 21.67° C | 60% | 1015.1 hPa | 0 mm | - | 239 W/m² | - |
| 1787999102 | 21.67° C | 60% | 1015.3 hPa | 0 mm | - | 766 W/m² | - |
| 1787998803 | 21.67° C | 58% | 1015.2 hPa | 0 mm | - | 702 W/m² | - |
| 1787998504 | 21.67° C | 59% | 1015.2 hPa | 0 mm | - | 742 W/m² | - |
| 1787998205 | 21.11° C | 61% | 1015.3 hPa | 0 mm | - | 738 W/m² | - |
| 1787997907 | 21.67° C | 62% | 1015.3 hPa | 0 mm | - | 777 W/m² | - |
| 1787997603 | 21.67° C | 61% | 1015.4 hPa | 0 mm | - | 785 W/m² | - |
| 1787997304 | 21.67° C | 64% | 1015.5 hPa | 0 mm | - | 228 W/m² | - |
| 1787997004 | 21.67° C | 68% | 1015.4 hPa | 0 mm | - | 722 W/m² | - |
| 1787996704 | 21.11° C | 65% | 1015.4 hPa | 0 mm | - | 253 W/m² | - |
| 1787996404 | 21.11° C | 67% | 1015.5 hPa | 0 mm | - | 737 W/m² | - |
| 1787996106 | 20.56° C | 66% | 1015.6 hPa | 0 mm | - | 704 W/m² | - |
| 1787995805 | 20.56° C | 68% | 1015.8 hPa | 0 mm | - | 724 W/m² | - |
| 1787995504 | 20° C | 69% | 1015.7 hPa | 0 mm | - | 637 W/m² | - |
| 1787995203 | 20.56° C | 70% | 1015.8 hPa | 0 mm | - | 632 W/m² | - |
| 1787994903 | 20° C | 69% | 1015.9 hPa | 0 mm | - | 603 W/m² | - |
| 1787994604 | 19.44° C | 72% | 1016 hPa | 0 mm | - | 114 W/m² | - |
| 1787994308 | 19.44° C | 72% | 1015.9 hPa | 0 mm | - | 633 W/m² | - |
| 1787994003 | 19.44° C | 71% | 1016 hPa | 0 mm | - | 107 W/m² | - |
| 1787993703 | 19.44° C | 72% | 1015.9 hPa | 0 mm | - | 575 W/m² | - |
| 1787993405 | 20° C | 72% | 1015.9 hPa | 0 mm | - | 559 W/m² | - |
| 1787993104 | 19.44° C | 73% | 1015.9 hPa | 0 mm | - | 166 W/m² | - |
| 1787992804 | 19.44° C | 73% | 1016 hPa | 0 mm | - | 596 W/m² | - |
| 1787992503 | 19.44° C | 74% | 1016 hPa | 0 mm | - | 550 W/m² | - |
* Rain latest hour (hover to see other rain measurements)
** Current wind speed in m/s (hover to see current wind gust speed)